Location: Ozark
(37.5425°N, 88.7628°W)
Time: 00:58:45
(UTC+00:00)

Cosmos 1452 Rocket - Pass Details

Date: 26 January 2020
Orbit: 768 x 774 km, 74.1° (Epoch: 27 February)

Event Time Altitude Azimuth Distance (km) Brightness Sun altitude
Rises 12:18:43 0° 344° (NNW) 3,247 6.4 -9.2°
Reaches altitude 10° 12:21:07 10° 346° (NNW) 2,316 5.7 -8.7°
Maximum altitude 12:26:22 72° 71° (ENE) 810 3.8 -7.7°
Drops below altitude 10° 12:31:34 10° 156° (SSE) 2,300 6.6 -6.7°
Sets 12:33:57 0° 158° (SSE) 3,222 7.4 -6.3°
